Terminal Aerodrome Forecast
Issued by NWS

Home | Current Version | Previous Version | Text Only | Print | Product List | Glossary On
Versions: 1 2 3 4 5 6 7 8 9 10 11 12 13 14 15 16 17 18 19 20 21 22 23 24 25
000
FTUS43 KPAH 300959 AAA
TAFCGI
TAF AMD
KCGI 300959Z 3010/3106 VRB06KT P6SM BKN021
     FM301500 18010KT P6SM BKN022 OVC050
      TEMPO 3017/3019 -TSRA OVC021CB
     FM302200 28010KT P6SM SCT020 OVC040=

USA.gov is the U.S. government's official web portal to all federal, state and local government web resources and services.